Regional Weather Roundup
Issued by NWS

Home | Current Version | Previous Version | Text Only | Print | Product List | Glossary Off
Versions: 1 2 3 4 5 6 7 8 9 10 11 12 13 14 15 16 17 18 19 20 21 22 23 24 25 26 27

000
ASUS45 KSLC 261810
RWRUT

UTAH REGIONAL WEATHER ROUNDUP
NATIONAL WEATHER SERVICE SALT LAKE CITY UT
1200 PM MDT THU MAY 26 2016

UTZ001>011-023>025-261900-

NORTHERN UTAH

CITY           SKY/WX    TMP DP  RH WIND       PRES   REMARKS
BRIGHAM CITY     N/A     63  38  39 CALM      30.01S
HILL AFB       PTSUNNY   63  43  48 N9        30.01F
LOGAN          MOSUNNY   60  44  55 VRB3      30.02F
OGDEN          MOSUNNY   64  43  46 MISG      30.00S
PROVO AIRPORT  MOSUNNY   61  41  48 SW9       29.99F
SALT LAKE CITY MOSUNNY   66  43  43 W14G20    29.98F
VERNAL         SUNNY     67  33  28 E9        29.95F
WENDOVER       PTSUNNY   63  36  36 SE7       30.03F
HEBER CITY     MOSUNNY   63  30  29 N8        29.97F
WEST JORDAN    SUNNY     63  39  42 NW12      30.00F

$$

UTZ012>022-026-027-261900-

SOUTHERN/CENTRAL UTAH

CITY           SKY/WX    TMP DP  RH WIND       PRES   REMARKS
BLANDING       SUNNY     64  22  20 SE8       30.02F
BRYCE CANYON   LGT RAIN  45  34  65 W15       30.06R
CEDAR CITY     PTSUNNY   60  36  40 N9        30.00F
DELTA          PTSUNNY   63  34  34 N6        29.99F
HANKSVILLE     MOSUNNY   72  28  20 SE8       29.90S
MILFORD        MOSUNNY   65  38  36 N14G20    30.00F
MOAB/CYNLANDS  MOSUNNY   71  20  14 CALM      29.85F
PRICE          MOSUNNY   65  25  22 VRB3      29.93F
ST GEORGE      PTCLDY    73  34  23 W20       29.93F

$$

REGIONAL REPORTS     COLORADO/ARIZONA

CITY           SKY/WX    TMP DP  RH WIND       PRES   REMARKS
CRAIG, CO      CLOUDY    60  39  45 SW7       29.97F
GRAND JUNCTION SUNNY     68  19  15 CALM      29.87F
RIFLE          CLOUDY    63  28  26 SE10      29.90F
MONTROSE       CLOUDY    64  17  16 S13G25    29.93S
CORTEZ         MOSUNNY   63  21  20 SW13G20   29.94F
PAGE, AZ       PTSUNNY   67  26  21 CALM      29.92S
GRAND CANYON   PTSUNNY   56  25  30 NW8       30.06R
KINGMAN        SUNNY     71  28  20 W9G16     30.00R
FLAGSTAFF      PTSUNNY   52  24  33 SW8       30.07S

$$

REGIONAL REPORTS    NEVADA/IDAHO/WYOMING

CITY           SKY/WX    TMP DP  RH WIND       PRES   REMARKS
LAS VEGAS, NV  MOSUNNY   76  35  22 CALM      29.91S
ELY            MOSUNNY   54  39  57 N13G21    30.09S
ELKO           MOSUNNY   59  40  49 W6        30.08F
POCATELLO, ID  MOSUNNY   60  44  55 VRB6      30.04F
BURLEY         SUNNY     62  42  47 W8        30.02F
EVANSTON, WY   MOSUNNY   53  34  48 N8        30.06F
ROCK SPRINGS   MOSUNNY   54  32  43 NW10      30.04F
KEMMERER         N/A     54  32  43 SW6       30.07F

$$




USA.gov is the U.S. government's official web portal to all federal, state and local government web resources and services.